QPF
0.00 0.00 0.00 0.00 0.00 0.00 0.01 0.01 0.01 0.01 0.01 0.01 0.01 0.00 0.01 0.01 0.01 0.01 0.01 0.02 0.02 0.02 0.02 0.01 0.01 0.02 0.03 0.02 0.02 0.03 0.04 0.03 0.03 0.03 0.02 0.01 0.01 0.01 0.01 0.02 0.02 0.02 0.01 0.02
0.00 0.00 0.00 0.01 0.00 0.00 0.00 0.00 0.00 0.01 0.01 0.01 0.01 0.01 0.01 0.01 0.01 0.01 0.01 0.01 0.02 0.03 0.02 0.02 0.02 0.02 0.02 0.02 0.02 0.03 0.04 0.03 0.04 0.04 0.03 0.01 0.01 0.01 0.01 0.01 0.02 0.01 0.01 0.01
0.00 0.00 0.00 0.01 0.00 0.00 0.01 0.00 0.01 0.01 0.02 0.01 0.00 0.01 0.01 0.01 0.01 0.02 0.01 0.01 0.02 0.03 0.03 0.02 0.02 0.02 0.03 0.03 0.03 0.03 0.03 0.04 0.03 0.03 0.02 0.02 0.01 0.01 0.01 0.02 0.02 0.02 0.01 0.01
0.00 0.00 0.00 0.00 0.00 0.01 0.01 0.01 0.01 0.01 0.01 0.00 0.01 0.01 0.02 0.02 0.02 0.02 0.01 0.01 0.01 0.02 0.04 0.03 0.03 0.03 0.04 0.04 0.04 0.03 0.03 0.04 0.04 0.02 0.02 0.02 0.02 0.02 0.02 0.02 0.02 0.02 0.02 0.02
0.01 0.01 0.00 0.00 0.00 0.00 0.01 0.01 0.00 0.01 0.01 0.01 0.01 0.02 0.03 0.02 0.01 0.01 0.01 0.01 0.02 0.02 0.03 0.03 0.03 0.03 0.04 0.05 0.05 0.04 0.03 0.04 0.03 0.02 0.02 0.02 0.02 0.02 0.03 0.03 0.03 0.03 0.04 0.05
0.01 0.01 0.01 0.00 0.00 0.00 0.00 0.01 0.00 0.01 0.02 0.01 0.01 0.02 0.02 0.01 0.01 0.01 0.01 0.02 0.02 0.02 0.03 0.03 0.03 0.03 0.04 0.05 0.04 0.04 0.04 0.04 0.04 0.03 0.02 0.02 0.03 0.04 0.03 0.03 0.04 0.03 0.04 0.04
0.02 0.02 0.01 0.00 0.00 0.00 0.02 0.02 0.01 0.01 0.02 0.01 0.03 0.02 0.02 0.01 0.01 0.02 0.02 0.03 0.03 0.03 0.04 0.04 0.03 0.04 0.06 0.06 0.04 0.04 0.04 0.04 0.04 0.04 0.03 0.03 0.03 0.03 0.03 0.03 0.02 0.03 0.03 0.03
0.01 0.01 0.01 0.00 0.00 0.01 0.01 0.01 0.00 0.00 0.01 0.01 0.01 0.01 0.00 0.01 0.02 0.02 0.03 0.04 0.05 0.05 0.05 0.04 0.05 0.04 0.06 0.06 0.04 0.03 0.03 0.03 0.03 0.03 0.03 0.03 0.03 0.03 0.02 0.02 0.02 0.03 0.02 0.02
0.02 0.01 0.01 0.01 0.01 0.01 0.01 0.01 0.01 0.01 0.01 0.01 0.01 0.01 0.01 0.02 0.02 0.02 0.02 0.02 0.04 0.06 0.05 0.06 0.06 0.04 0.06 0.07 0.05 0.03 0.02 0.02 0.01 0.01 0.02 0.03 0.03 0.03 0.03 0.02 0.02 0.02 0.02 0.01
0.02 0.01 0.01 0.01 0.01 0.01 0.02 0.02 0.01 0.01 0.01 0.01 0.01 0.02 0.02 0.02 0.02 0.03 0.03 0.03 0.03 0.05 0.05 0.07 0.06 0.04 0.05 0.04 0.04 0.03 0.02 0.01 0.01 0.01 0.01 0.01 0.01 0.01 0.01 0.02 0.02 0.01 0.01 0.01
0.01 0.01 0.01 0.01 0.02 0.02 0.02 0.02 0.01 0.02 0.02 0.01 0.01 0.01 0.02 0.02 0.03 0.03 0.02 0.02 0.03 0.04 0.05 0.06 0.05 0.04 0.04 0.03 0.03 0.02 0.02 0.01 0.01 0.01 0.01 0.01 0.01 0.01 0.01 0.01 0.01 0.01 0.01 0.00
0.01 0.02 0.02 0.02 0.03 0.04 0.02 0.01 0.01 0.01 0.01 0.01 0.01 0.01 0.02 0.02 0.02 0.03 0.02 0.02 0.03 0.04 0.04 0.05 0.06 0.05 0.04 0.03 0.01 0.01 0.00 0.00 0.00 0.00 0.00 0.01 0.00 0.00 0.00 0.00 0.00 0.00 0.00 0.00
0.01 0.01 0.01 0.01 0.01 0.01 0.01 0.01 0.01 0.01 0.01 0.01 0.01 0.01 0.02 0.02 0.02 0.02 0.01 0.01 0.01 0.02 0.03 0.04 0.05 0.04 0.03 0.02 0.01 0.00 0.00 0.00 0.00 0.00 0.00 0.00 0.00 0.00 0.00 0.00 0.00 0.00 0.00 0.00
0.00 0.00 0.00 0.01 0.01 0.00 0.00 0.00 0.01 0.01 0.01 0.01 0.01 0.01 0.02 0.02 0.02 0.02 0.01 0.00 0.00 0.01 0.01 0.02 0.03 0.03 0.02 0.01 0.01 0.00 0.00 0.00 0.00 0.00 0.00 0.00 0.00 0.00 0.00 0.00 0.00 0.00 0.00 0.00
0.00 0.00 0.00 0.00 0.00 0.00 0.00 0.00 0.01 0.01 0.00 0.00 0.01 0.02 0.02 0.02 0.01 0.01 0.01 0.00 0.00 0.00 0.01 0.02 0.02 0.02 0.01 0.01 0.01 0.01 0.00 0.00 0.00 0.00 0.00 0.00 0.00 0.00 0.00 0.00 0.00 0.00 0.00 0.00
0.00 0.00 0.00 0.00 0.00 0.00 0.00 0.00 0.01 0.01 0.00 0.00 0.01 0.02 0.02 0.02 0.01 0.01 0.01 0.01 0.01 0.01 0.01 0.02 0.02 0.02 0.02 0.02 0.02 0.01 0.00 0.00 0.00 0.00 0.00 0.00 0.00 0.00 0.00 0.00 0.00 0.00 0.00 0.00
0.00 0.00 0.00 0.00 0.00 0.00 0.00 0.00 0.00 0.00 0.00 0.00 0.01 0.02 0.02 0.02 0.02 0.02 0.01 0.02 0.03 0.04 0.04 0.03 0.03 0.02 0.02 0.02 0.01 0.01 0.00 0.00 0.00 0.00 0.00 0.00 0.00 0.00 0.00 0.00 0.00 0.00 0.00 0.00
0.00 0.00 0.00 0.00 0.00 0.00 0.00 0.00 0.00 0.00 0.00 0.01 0.01 0.02 0.02 0.02 0.01 0.01 0.01 0.02 0.02 0.02 0.02 0.01 0.01 0.01 0.01 0.01 0.00 0.01 0.01 0.00 0.00 0.00 0.00 0.00 0.00 0.00 0.00 0.00 0.00 0.00 0.00 0.00
0.01 0.00 0.00 0.00 0.00 0.00 0.00 0.00 0.00 0.00 0.00 0.01 0.01 0.01 0.01 0.01 0.02 0.02 0.01 0.01 0.01 0.02 0.02 0.01 0.01 0.01 0.00 0.00 0.00 0.00 0.01 0.01 0.01 0.00 0.00 0.00 0.00 0.00 0.00 0.00 0.00 0.00 0.00 0.00
0.01 0.00 0.00 0.00 0.00 0.00 0.00 0.00 0.00 0.00 0.00 0.01 0.01 0.01 0.01 0.01 0.02 0.01 0.01 0.01 0.01 0.01 0.02 0.01 0.00 0.00 0.00 0.00 0.00 0.00 0.00 0.00 0.00 0.00 0.00 0.00 0.00 0.00 0.00 0.01 0.01 0.00 0.00 0.01
0.00 0.00 0.00 0.00 0.00 0.00 0.00 0.00 0.01 0.01 0.01 0.01 0.01 0.00 0.00 0.01 0.01 0.01 0.01 0.01 0.01 0.00 0.01 0.00 0.00 0.00 0.00 0.00 0.00 0.00 0.00 0.00 0.00 0.00 0.01 0.01 0.01 0.00 0.01 0.01 0.01 0.01 0.00 0.01
0.00 0.00 0.00 0.00 0.00 0.00 0.00 0.01 0.01 0.01 0.01 0.01 0.01 0.00 0.00 0.01 0.00 0.00 0.01 0.01 0.01 0.00 0.00 0.00 0.00 0.00 0.00 0.00 0.00 0.00 0.00 0.01 0.01 0.01 0.01 0.01 0.01 0.01 0.00 0.01 0.01 0.01 0.01 0.01
0.00 0.00 0.00 0.00 0.00 0.00 0.00 0.01 0.01 0.01 0.01 0.00 0.00 0.00 0.00 0.00 0.00 0.01 0.01 0.01 0.00 0.00 0.00 0.00 0.00 0.00 0.00 0.01 0.00 0.00 0.00 0.01 0.01 0.01 0.01 0.01 0.01 0.01 0.01 0.01 0.01 0.01 0.01 0.01
0.00 0.00 0.00 0.00 0.00 0.00 0.00 0.00 0.01 0.01 0.00 0.00 0.00 0.00 0.00 0.00 0.00 0.00 0.00 0.00 0.00 0.00 0.01 0.01 0.00 0.00 0.00 0.00 0.01 0.01 0.01 0.01 0.01 0.01 0.01 0.01 0.01 0.01 0.01 0.01 0.01 0.01 0.01 0.01
0.00 0.00 0.00 0.00 0.00 0.00 0.00 0.00 0.00 0.00 0.00 0.00 0.00 0.00 0.00 0.00 0.00 0.00 0.00 0.00 0.00 0.00 0.00 0.00 0.00 0.01 0.01 0.01 0.01 0.01 0.01 0.01 0.01 0.01 0.01 0.01 0.01 0.01 0.01 0.01 0.01 0.01 0.01 0.01
0.00 0.00 0.00 0.00 0.00 0.00 0.00 0.00 0.00 0.00 0.00 0.00 0.00 0.00 0.00 0.00 0.00 0.00 0.00 0.00 0.00 0.00 0.00 0.00 0.01 0.01 0.01 0.01 0.01 0.00 0.00 0.00 0.00 0.00 0.00 0.00 0.01 0.01 0.01 0.01 0.01 0.01 0.01 0.01
0.00 0.00 0.00 0.00 0.00 0.00 0.00 0.00 0.00 0.00 0.00 0.00 0.00 0.00 0.00 0.00 0.01 0.01 0.00 0.00 0.00 0.00 0.00 0.00 0.00 0.01 0.01 0.01 0.00 0.00 0.00 0.00 0.00 0.00 0.00 0.00 0.00 0.00 0.01 0.01 0.01 0.01 0.00 0.00
MSLP
1012.64 1012.51 1012.30 1012.05 1011.79 1011.56 1011.41 1011.35 1011.40 1011.56 1011.83 1012.17 1012.57 1013.00 1013.42 1013.81 1014.17 1014.47 1014.71 1014.91 1015.08 1015.25 1015.42 1015.61 1015.84 1016.11 1016.41 1016.74 1017.07 1017.39 1017.68 1017.93 1018.12 1018.25 1018.33 1018.36 1018.36 1018.34 1018.32 1018.28 1018.25 1018.22 1018.19 1018.15
1012.70 1012.51 1012.21 1011.83 1011.44 1011.10 1010.86 1010.76 1010.83 1011.07 1011.46 1011.97 1012.55 1013.16 1013.73 1014.25 1014.67 1014.98 1015.19 1015.32 1015.40 1015.46 1015.52 1015.63 1015.79 1016.02 1016.29 1016.61 1016.94 1017.25 1017.54 1017.77 1017.94 1018.05 1018.11 1018.13 1018.12 1018.11 1018.10 1018.11 1018.13 1018.15 1018.17 1018.17
1012.68 1012.46 1012.10 1011.64 1011.16 1010.73 1010.42 1010.29 1010.37 1010.66 1011.15 1011.78 1012.51 1013.26 1013.96 1014.57 1015.05 1015.38 1015.57 1015.65 1015.65 1015.62 1015.60 1015.64 1015.74 1015.92 1016.17 1016.47 1016.79 1017.11 1017.38 1017.60 1017.76 1017.84 1017.88 1017.88 1017.87 1017.86 1017.87 1017.90 1017.96 1018.02 1018.09 1018.13
1012.52 1012.29 1011.90 1011.40 1010.87 1010.39 1010.05 1009.90 1009.99 1010.32 1010.87 1011.59 1012.43 1013.28 1014.08 1014.77 1015.30 1015.66 1015.85 1015.90 1015.86 1015.77 1015.70 1015.68 1015.74 1015.89 1016.12 1016.40 1016.72 1017.02 1017.28 1017.49 1017.62 1017.69 1017.71 1017.69 1017.66 1017.65 1017.66 1017.71 1017.78 1017.88 1017.97 1018.03
1012.15 1011.93 1011.54 1011.04 1010.51 1010.02 1009.68 1009.53 1009.64 1010.00 1010.60 1011.38 1012.28 1013.21 1014.09 1014.84 1015.43 1015.82 1016.03 1016.09 1016.04 1015.94 1015.85 1015.80 1015.84 1015.98 1016.19 1016.46 1016.76 1017.05 1017.30 1017.49 1017.60 1017.65 1017.64 1017.61 1017.56 1017.53 1017.54 1017.58 1017.65 1017.75 1017.85 1017.92
1011.53 1011.33 1010.97 1010.51 1010.01 1009.57 1009.26 1009.15 1009.29 1009.68 1010.32 1011.14 1012.08 1013.06 1013.98 1014.79 1015.43 1015.87 1016.13 1016.22 1016.20 1016.13 1016.05 1016.02 1016.06 1016.19 1016.39 1016.66 1016.94 1017.22 1017.45 1017.62 1017.71 1017.74 1017.71 1017.65 1017.58 1017.53 1017.51 1017.53 1017.59 1017.68 1017.76 1017.83
1010.66 1010.48 1010.17 1009.79 1009.38 1009.02 1008.79 1008.75 1008.94 1009.37 1010.03 1010.87 1011.84 1012.84 1013.80 1014.64 1015.33 1015.83 1016.15 1016.31 1016.35 1016.33 1016.30 1016.30 1016.37 1016.50 1016.71 1016.97 1017.24 1017.50 1017.71 1017.86 1017.93 1017.94 1017.88 1017.80 1017.70 1017.63 1017.58 1017.57 1017.60 1017.66 1017.72 1017.78
1009.59 1009.43 1009.20 1008.93 1008.64 1008.41 1008.30 1008.36 1008.62 1009.10 1009.78 1010.64 1011.60 1012.61 1013.58 1014.45 1015.18 1015.74 1016.13 1016.36 1016.48 1016.54 1016.57 1016.62 1016.73 1016.88 1017.10 1017.35 1017.60 1017.84 1018.03 1018.16 1018.21 1018.19 1018.11 1018.00 1017.88 1017.77 1017.69 1017.65 1017.65 1017.67 1017.71 1017.74
1008.39 1008.28 1008.14 1008.00 1007.87 1007.81 1007.84 1008.02 1008.37 1008.91 1009.62 1010.48 1011.43 1012.42 1013.38 1014.26 1015.01 1015.62 1016.07 1016.39 1016.59 1016.73 1016.83 1016.95 1017.09 1017.27 1017.49 1017.73 1017.97 1018.18 1018.34 1018.44 1018.47 1018.42 1018.32 1018.18 1018.04 1017.90 1017.78 1017.71 1017.67 1017.66 1017.68 1017.69
1007.16 1007.11 1007.09 1007.11 1007.16 1007.28 1007.49 1007.81 1008.26 1008.86 1009.60 1010.45 1011.37 1012.33 1013.26 1014.12 1014.88 1015.51 1016.02 1016.39 1016.67 1016.89 1017.06 1017.23 1017.41 1017.62 1017.84 1018.07 1018.28 1018.46 1018.59 1018.65 1018.64 1018.57 1018.44 1018.27 1018.10 1017.92 1017.78 1017.67 1017.60 1017.56 1017.56 1017.56
1005.98 1006.02 1006.14 1006.33 1006.58 1006.90 1007.28 1007.75 1008.32 1008.98 1009.73 1010.57 1011.46 1012.36 1013.24 1014.06 1014.80 1015.44 1015.97 1016.39 1016.73 1017.01 1017.24 1017.46 1017.67 1017.89 1018.10 1018.31 1018.50 1018.64 1018.72 1018.74 1018.69 1018.58 1018.42 1018.22 1018.01 1017.81 1017.63 1017.48 1017.38 1017.32 1017.29 1017.28
1004.93 1005.07 1005.35 1005.72 1006.17 1006.68 1007.24 1007.86 1008.52 1009.24 1010.02 1010.83 1011.66 1012.50 1013.32 1014.09 1014.79 1015.41 1015.94 1016.39 1016.76 1017.08 1017.36 1017.61 1017.84 1018.06 1018.27 1018.45 1018.59 1018.69 1018.73 1018.70 1018.60 1018.45 1018.24 1018.01 1017.76 1017.52 1017.31 1017.13 1017.00 1016.91 1016.86 1016.84
1004.04 1004.30 1004.72 1005.27 1005.90 1006.59 1007.32 1008.06 1008.82 1009.59 1010.37 1011.16 1011.94 1012.71 1013.45 1014.16 1014.81 1015.40 1015.92 1016.37 1016.77 1017.11 1017.41 1017.68 1017.93 1018.15 1018.34 1018.49 1018.59 1018.64 1018.63 1018.55 1018.40 1018.19 1017.94 1017.67 1017.38 1017.11 1016.86 1016.66 1016.50 1016.38 1016.30 1016.25
1003.28 1003.66 1004.23 1004.94 1005.74 1006.58 1007.43 1008.28 1009.12 1009.93 1010.71 1011.47 1012.20 1012.91 1013.59 1014.23 1014.83 1015.38 1015.88 1016.33 1016.73 1017.09 1017.41 1017.70 1017.95 1018.16 1018.33 1018.45 1018.52 1018.52 1018.46 1018.32 1018.13 1017.88 1017.58 1017.27 1016.95 1016.64 1016.36 1016.12 1015.93 1015.78 1015.68 1015.60
1002.62 1003.13 1003.83 1004.67 1005.60 1006.56 1007.52 1008.45 1009.33 1010.16 1010.95 1011.68 1012.38 1013.03 1013.66 1014.25 1014.81 1015.33 1015.81 1016.25 1016.66 1017.03 1017.36 1017.65 1017.90 1018.11 1018.27 1018.36 1018.40 1018.36 1018.26 1018.08 1017.85 1017.56 1017.23 1016.88 1016.53 1016.19 1015.89 1015.62 1015.40 1015.22 1015.08 1014.97
1002.01 1002.65 1003.47 1004.41 1005.43 1006.47 1007.50 1008.48 1009.39 1010.24 1011.02 1011.74 1012.41 1013.03 1013.62 1014.18 1014.71 1015.21 1015.68 1016.12 1016.53 1016.91 1017.25 1017.54 1017.80 1018.00 1018.15 1018.24 1018.25 1018.19 1018.06 1017.86 1017.60 1017.28 1016.94 1016.57 1016.20 1015.85 1015.52 1015.24 1014.99 1014.78 1014.60 1014.45
1001.43 1002.18 1003.10 1004.12 1005.20 1006.29 1007.35 1008.35 1009.28 1010.13 1010.91 1011.62 1012.27 1012.89 1013.46 1014.01 1014.53 1015.02 1015.49 1015.93 1016.35 1016.73 1017.08 1017.38 1017.64 1017.84 1017.99 1018.07 1018.08 1018.02 1017.88 1017.67 1017.40 1017.08 1016.73 1016.36 1015.99 1015.64 1015.31 1015.01 1014.74 1014.51 1014.30 1014.11
1000.86 1001.72 1002.71 1003.80 1004.91 1006.02 1007.09 1008.09 1009.01 1009.86 1010.64 1011.34 1012.00 1012.61 1013.19 1013.74 1014.26 1014.76 1015.24 1015.69 1016.11 1016.49 1016.84 1017.15 1017.42 1017.63 1017.78 1017.87 1017.88 1017.83 1017.70 1017.50 1017.25 1016.95 1016.62 1016.26 1015.91 1015.56 1015.24 1014.94 1014.66 1014.41 1014.18 1013.95
1000.32 1001.28 1002.34 1003.46 1004.59 1005.69 1006.75 1007.73 1008.64 1009.48 1010.25 1010.97 1011.63 1012.26 1012.85 1013.41 1013.95 1014.46 1014.94 1015.39 1015.81 1016.20 1016.55 1016.86 1017.12 1017.34 1017.50 1017.60 1017.63 1017.60 1017.50 1017.34 1017.11 1016.85 1016.55 1016.23 1015.90 1015.58 1015.27 1014.98 1014.71 1014.45 1014.20 1013.95
999.84 1000.89 1002.01 1003.15 1004.28 1005.37 1006.39 1007.35 1008.24 1009.07 1009.83 1010.55 1011.22 1011.86 1012.47 1013.05 1013.60 1014.12 1014.60 1015.05 1015.46 1015.84 1016.18 1016.49 1016.75 1016.97 1017.14 1017.25 1017.31 1017.31 1017.25 1017.12 1016.95 1016.73 1016.47 1016.19 1015.90 1015.61 1015.32 1015.05 1014.79 1014.53 1014.27 1014.00
999.46 1000.59 1001.75 1002.90 1004.02 1005.08 1006.07 1007.00 1007.86 1008.66 1009.42 1010.14 1010.82 1011.47 1012.09 1012.68 1013.23 1013.75 1014.23 1014.67 1015.07 1015.43 1015.75 1016.04 1016.29 1016.51 1016.69 1016.82 1016.91 1016.94 1016.91 1016.84 1016.71 1016.54 1016.33 1016.09 1015.84 1015.58 1015.32 1015.07 1014.82 1014.56 1014.30 1014.03
999.20 1000.39 1001.58 1002.73 1003.82 1004.85 1005.80 1006.68 1007.51 1008.29 1009.03 1009.74 1010.42 1011.08 1011.71 1012.30 1012.85 1013.36 1013.82 1014.24 1014.61 1014.95 1015.25 1015.52 1015.76 1015.97 1016.15 1016.29 1016.40 1016.47 1016.48 1016.45 1016.37 1016.24 1016.08 1015.88 1015.67 1015.44 1015.21 1014.97 1014.73 1014.49 1014.23 1013.97
999.07 1000.29 1001.48 1002.62 1003.67 1004.65 1005.56 1006.40 1007.18 1007.93 1008.65 1009.35 1010.03 1010.68 1011.30 1011.89 1012.43 1012.92 1013.36 1013.75 1014.10 1014.40 1014.67 1014.91 1015.14 1015.34 1015.52 1015.68 1015.80 1015.90 1015.95 1015.96 1015.92 1015.83 1015.71 1015.55 1015.36 1015.16 1014.94 1014.72 1014.49 1014.26 1014.02 1013.77
999.04 1000.27 1001.43 1002.52 1003.53 1004.46 1005.31 1006.10 1006.84 1007.56 1008.26 1008.94 1009.60 1010.24 1010.85 1011.42 1011.94 1012.41 1012.83 1013.19 1013.50 1013.78 1014.02 1014.24 1014.44 1014.64 1014.82 1014.98 1015.12 1015.24 1015.32 1015.36 1015.35 1015.30 1015.21 1015.08 1014.92 1014.74 1014.54 1014.33 1014.11 1013.89 1013.67 1013.43
999.07 1000.26 1001.37 1002.40 1003.35 1004.21 1005.00 1005.74 1006.45 1007.13 1007.80 1008.46 1009.10 1009.72 1010.32 1010.87 1011.38 1011.82 1012.21 1012.55 1012.83 1013.08 1013.30 1013.50 1013.69 1013.87 1014.05 1014.22 1014.37 1014.51 1014.61 1014.67 1014.70 1014.67 1014.61 1014.50 1014.37 1014.20 1014.02 1013.83 1013.63 1013.42 1013.21 1013.00
999.09 1000.21 1001.25 1002.20 1003.07 1003.87 1004.60 1005.29 1005.96 1006.61 1007.25 1007.89 1008.52 1009.12 1009.70 1010.24 1010.72 1011.15 1011.52 1011.83 1012.09 1012.32 1012.52 1012.71 1012.88 1013.06 1013.24 1013.41 1013.57 1013.72 1013.84 1013.93 1013.97 1013.97 1013.93 1013.85 1013.74 1013.60 1013.43 1013.26 1013.08 1012.89 1012.71 1012.52
999.04 1000.06 1001.01 1001.88 1002.68 1003.41 1004.09 1004.74 1005.38 1006.00 1006.63 1007.25 1007.86 1008.45 1009.01 1009.53 1010.00 1010.41 1010.76 1011.06 1011.31 1011.52 1011.71 1011.89 1012.06 1012.23 1012.40 1012.58 1012.75 1012.90 1013.04 1013.14 1013.20 1013.23 1013.21 1013.16 1013.07 1012.96 1012.83 1012.68 1012.52 1012.37 1012.21 1012.05
Thickness
5705 5708 5707 5704 5704 5705 5702 5702 5699 5701 5701 5700 5693 5687 5681 5675 5671 5665 5661 5657 5653 5649 5646 5641 5636 5632 5627 5622 5617 5613 5609 5604 5599 5594 5590 5587 5584 5581 5579 5577 5576 5574 5574 5573
5695 5703 5702 5698 5700 5701 5699 5701 5699 5698 5695 5698 5691 5684 5676 5670 5665 5661 5657 5653 5649 5645 5641 5636 5631 5627 5622 5617 5612 5608 5603 5599 5594 5589 5585 5582 5579 5576 5574 5572 5570 5569 5569 5568
5688 5697 5694 5688 5698 5697 5695 5699 5696 5692 5694 5690 5682 5676 5671 5666 5662 5658 5653 5649 5645 5641 5637 5632 5627 5623 5618 5613 5608 5604 5599 5594 5590 5585 5581 5578 5576 5573 5570 5568 5566 5564 5564 5563
5688 5684 5671 5694 5705 5700 5695 5695 5696 5693 5689 5685 5679 5674 5670 5666 5661 5655 5650 5645 5641 5637 5633 5628 5625 5620 5615 5610 5605 5600 5595 5591 5586 5582 5578 5574 5572 5570 5567 5565 5563 5561 5560 5559
5683 5680 5684 5694 5698 5695 5689 5688 5694 5689 5682 5678 5674 5667 5663 5661 5657 5653 5647 5642 5637 5633 5629 5625 5621 5616 5611 5606 5601 5596 5591 5587 5583 5579 5575 5572 5570 5566 5564 5562 5560 5559 5559 5558
5680 5672 5672 5690 5698 5699 5689 5681 5689 5684 5676 5671 5667 5663 5661 5657 5653 5648 5642 5637 5633 5630 5626 5621 5617 5613 5608 5603 5598 5593 5589 5585 5581 5576 5573 5570 5568 5565 5563 5561 5560 5559 5558 5557
5678 5675 5684 5695 5696 5690 5673 5678 5684 5681 5675 5669 5668 5668 5663 5655 5649 5643 5638 5633 5630 5627 5623 5618 5614 5610 5605 5600 5596 5592 5588 5583 5579 5575 5571 5569 5566 5564 5562 5561 5560 5558 5557 5556
5678 5673 5679 5693 5689 5683 5681 5684 5682 5677 5672 5668 5665 5661 5656 5651 5645 5639 5634 5630 5627 5623 5619 5614 5611 5607 5602 5598 5594 5590 5586 5582 5577 5574 5572 5569 5566 5564 5563 5561 5560 5559 5557 5557
5682 5683 5687 5690 5688 5687 5685 5680 5677 5673 5670 5665 5659 5655 5651 5646 5641 5636 5632 5628 5625 5621 5616 5612 5609 5605 5601 5596 5593 5589 5585 5581 5577 5574 5571 5569 5567 5566 5564 5562 5563 5562 5561 5561
5680 5685 5686 5687 5687 5685 5682 5678 5676 5672 5667 5663 5657 5652 5648 5643 5638 5633 5630 5626 5622 5619 5615 5611 5607 5604 5600 5596 5592 5588 5585 5581 5577 5575 5573 5570 5568 5568 5567 5566 5565 5564 5563 5563
5678 5683 5682 5683 5683 5681 5678 5676 5671 5668 5665 5661 5656 5650 5646 5641 5636 5632 5629 5625 5621 5618 5614 5611 5607 5603 5600 5596 5592 5589 5585 5582 5580 5578 5576 5572 5571 5569 5568 5566 5563 5561 5563 5563
5681 5686 5683 5681 5682 5679 5674 5671 5668 5664 5660 5658 5654 5649 5645 5640 5636 5632 5628 5625 5621 5618 5615 5611 5607 5604 5601 5597 5594 5590 5588 5585 5585 5583 5579 5577 5575 5573 5567 5564 5561 5558 5556 5555
5688 5690 5688 5684 5680 5677 5673 5670 5667 5663 5659 5655 5652 5648 5644 5639 5635 5631 5628 5625 5621 5618 5615 5611 5608 5605 5602 5599 5596 5592 5590 5588 5587 5586 5583 5581 5579 5576 5573 5569 5564 5562 5560 5558
5687 5684 5678 5678 5677 5676 5672 5669 5666 5663 5659 5655 5650 5647 5643 5639 5635 5631 5628 5625 5622 5619 5616 5612 5609 5607 5604 5601 5597 5594 5593 5589 5588 5587 5586 5585 5583 5581 5579 5577 5574 5573 5568 5563
5683 5683 5681 5679 5676 5673 5670 5667 5662 5659 5656 5652 5648 5645 5641 5637 5634 5631 5629 5626 5623 5620 5617 5614 5611 5608 5606 5603 5599 5597 5595 5594 5591 5590 5589 5588 5586 5585 5583 5581 5580 5578 5577 5573
5684 5683 5680 5676 5673 5670 5668 5665 5662 5658 5655 5651 5647 5644 5640 5637 5634 5631 5629 5627 5623 5621 5618 5615 5612 5610 5608 5604 5601 5599 5597 5592 5589 5591 5592 5590 5589 5588 5586 5584 5583 5582 5580 5579
5681 5678 5677 5674 5672 5671 5669 5667 5664 5659 5656 5651 5648 5644 5640 5637 5633 5631 5629 5627 5624 5622 5619 5616 5614 5612 5609 5606 5603 5603 5601 5598 5591 5593 5594 5594 5592 5590 5588 5586 5585 5584 5583 5582
5688 5686 5683 5680 5677 5673 5670 5668 5664 5660 5656 5653 5650 5645 5641 5637 5634 5632 5630 5628 5625 5622 5620 5618 5616 5613 5611 5608 5606 5606 5604 5602 5600 5599 5597 5595 5593 5591 5590 5588 5587 5585 5586 5584
5689 5686 5684 5681 5679 5675 5672 5668 5665 5662 5658 5655 5651 5646 5642 5640 5637 5634 5632 5628 5626 5623 5622 5621 5615 5613 5611 5609 5607 5606 5606 5604 5602 5601 5599 5595 5592 5593 5592 5590 5589 5588 5587 5586
5689 5687 5684 5682 5680 5677 5673 5670 5666 5662 5659 5656 5651 5647 5643 5641 5639 5636 5633 5631 5630 5629 5626 5622 5617 5615 5613 5611 5607 5610 5609 5606 5605 5603 5601 5599 5597 5595 5594 5592 5591 5589 5587 5586
5688 5686 5684 5682 5679 5677 5674 5671 5666 5662 5659 5656 5652 5648 5646 5643 5641 5639 5635 5634 5632 5631 5627 5621 5619 5618 5616 5614 5607 5611 5610 5608 5606 5605 5603 5601 5599 5597 5596 5593 5592 5590 5589 5587
5688 5686 5684 5681 5678 5675 5673 5670 5667 5663 5659 5656 5654 5651 5648 5644 5643 5640 5638 5637 5635 5630 5628 5626 5624 5621 5618 5613 5614 5614 5613 5611 5609 5607 5604 5602 5601 5599 5597 5594 5593 5591 5589 5587
5688 5685 5683 5680 5677 5674 5672 5670 5667 5664 5660 5658 5655 5653 5650 5649 5648 5644 5641 5640 5638 5631 5630 5630 5625 5619 5614 5614 5616 5616 5614 5612 5610 5608 5606 5604 5602 5600 5597 5594 5592 5591 5589 5586
5686 5683 5681 5680 5678 5673 5670 5669 5667 5665 5662 5661 5658 5656 5653 5650 5648 5649 5646 5639 5636 5631 5633 5629 5622 5618 5613 5618 5618 5617 5616 5613 5611 5609 5607 5605 5604 5601 5598 5594 5592 5590 5587 5584
5684 5683 5680 5678 5676 5675 5671 5669 5666 5664 5663 5663 5661 5658 5657 5655 5653 5651 5648 5644 5636 5632 5634 5629 5622 5618 5619 5622 5621 5619 5617 5614 5612 5609 5606 5603 5601 5599 5596 5593 5589 5587 5584 5581
5683 5682 5680 5680 5680 5678 5677 5674 5671 5669 5668 5665 5663 5661 5659 5657 5654 5652 5648 5645 5641 5635 5636 5635 5630 5623 5625 5624 5622 5620 5617 5614 5611 5608 5605 5602 5599 5596 5593 5590 5586 5584 5581 5577
5682 5682 5680 5681 5679 5680 5679 5676 5674 5671 5671 5668 5665 5663 5661 5659 5656 5654 5650 5648 5644 5641 5639 5637 5635 5632 5629 5626 5623 5620 5617 5613 5610 5607 5604 5601 5597 5593 5590 5586 5583 5580 5576 5573